Location: Sungai Dangang
(2.7500°N, 113.8333°E)
Time: 21:40:02
(UTC+00:00)

H-2A R/B - Pass Details

Date: 16 May 2021
Orbit: 577 x 655 km, 98.5° (Epoch: 15 June)

Event Time Altitude Azimuth Distance (km) Brightness Sun altitude
Rises 21:44:42 0° 160° (SSE) 2,897 5.5 -7.7°
Reaches altitude 10° 21:46:54 10° 156° (SSE) 2,001 4.7 -7.1°
Maximum altitude 21:51:11 57° 77° (ENE) 750 3.0 -6.1°
Drops below altitude 10° 21:55:32 10° 359° (N) 2,035 5.0 -5.1°
Sets 21:57:47 0° 355° (N) 2,950 5.7 -4.6°
